Dewpoint
15 15 17 17 17 16 11 9 7 7 10 10 9 9 10 10 11 11 12 8 7 5 6 7 8 14 14 9 8 8 10 11 10 8 9 9 8 9 10 11 9 9 13 13 13 12 10 8 8
15 16 17 17 16 14 13 10 11 10 10 10 10 10 12 14 13 13 11 8 7 6 7 8 8 11 10 10 10 9 9 10 9 11 10 9 8 8 8 9 9 11 13 13 12 12 12 10 10
16 16 17 16 15 15 14 11 10 10 10 10 11 12 13 15 13 11 8 8 7 7 8 9 8 11 13 13 11 13 12 13 12 10 9 9 9 10 8 8 10 11 11 10 10 9 10 10 11
17 17 14 14 14 12 11 10 9 9 9 11 11 13 13 14 11 10 7 7 7 8 9 10 10 11 12 13 14 11 12 8 9 10 11 11 12 11 10 9 9 10 9 9 11 11 12 7 11
16 12 13 14 13 11 10 8 8 9 8 12 12 13 15 13 12 10 8 7 7 8 8 10 11 11 12 12 13 12 12 11 7 9 11 13 12 12 12 12 11 11 9 11 9 12 13 5 8
11 12 13 13 12 10 9 8 9 8 11 12 12 13 14 13 13 12 11 9 8 9 10 12 12 11 12 12 12 12 12 12 7 8 10 9 12 13 12 13 12 12 12 11 10 12 8 7 13
11 13 14 13 10 10 9 8 8 9 10 12 11 13 13 13 14 13 13 11 10 11 11 12 10 11 10 8 9 11 12 11 9 10 10 8 12 12 13 13 12 12 12 12 11 12 4 12 12
11 13 14 13 10 10 8 8 7 8 9 11 11 13 13 12 13 14 14 14 13 11 10 9 8 9 8 7 7 7 9 10 10 12 13 13 13 11 11 7 12 12 10 13 9 7 6 11 13
12 12 13 10 11 9 8 7 7 9 10 11 12 11 11 12 13 14 15 15 14 11 10 8 8 7 7 7 7 8 9 10 11 8 8 12 12 12 13 9 5 14 6 7 6 6 7 10 12
15 12 11 9 10 10 7 6 7 8 8 8 10 9 7 11 12 14 14 14 12 10 10 8 7 6 6 7 6 11 14 13 9 8 10 11 12 11 11 11 9 3 8 6 10 11 5 5 11
15 14 11 10 10 10 9 8 8 8 8 7 7 6 6 12 13 12 14 11 8 7 8 7 7 6 6 7 6 5 6 6 12 13 12 11 12 11 10 11 12 2 8 7 12 11 7 5 11
12 12 13 11 3 6 10 9 8 8 7 2 6 8 7 12 13 12 13 11 7 7 6 6 7 5 5 7 7 6 4 5 10 10 10 8 11 10 11 9 10 6 9 12 5 6 7 4 10
7 5 1 2 0 -0 3 8 9 8 -2 -2 6 8 10 11 7 9 10 13 6 6 5 5 7 6 4 5 7 7 7 5 5 8 9 6 6 9 11 10 9 9 5 4 6 4 2 3 4
1 -1 -2 -2 -2 -0 7 6 4 -6 -8 -5 1 9 11 10 7 11 12 12 12 8 7 7 7 7 5 5 6 7 8 8 6 6 7 9 8 7 8 9 8 9 10 8 2 5 3 5 6
-3 -2 -2 -2 -3 -6 2 -6 -4 -8 -8 -1 4 8 11 10 8 6 9 12 9 11 11 10 10 9 7 6 5 6 7 8 9 8 10 9 10 9 10 10 12 13 14 12 10 5 9 7 8
-4 -3 -1 -3 -7 -8 -8 -5 -6 -8 -8 -6 11 10 11 11 9 10 10 10 11 12 12 13 13 12 10 7 6 6 7 7 9 9 10 10 10 11 13 13 14 14 14 14 14 12 5 9 8
-6 -0 -4 -5 -7 -7 -7 -5 -6 -9 -9 -9 3 11 12 12 10 12 10 11 11 13 13 13 13 14 13 10 7 6 7 7 8 10 10 10 11 13 14 14 14 14 14 14 14 14 12 10 6
-4 -4 -5 -4 -6 -6 -5 -5 -7 -9 -9 -9 -5 10 12 12 10 12 12 11 12 12 12 13 14 14 14 12 8 7 7 8 8 8 10 10 12 12 12 12 13 13 14 14 14 14 14 13 13
-7 -5 -5 -6 -7 -5 -5 -5 -7 -8 -7 -5 -3 9 12 11 12 12 11 9 11 12 12 12 14 14 15 13 11 9 8 9 9 12 10 10 13 13 13 14 14 14 14 14 14 14 13 13 13
-7 -6 -5 -5 -5 -4 -6 -7 -8 -7 -3 -1 4 7 9 12 12 12 10 8 8 11 12 12 13 14 15 14 14 13 13 13 10 12 12 12 13 14 14 13 14 14 14 15 13 14 14 13 13
-5 -4 -4 -4 -7 -9 -8 -6 -5 -1 4 5 4 5 6 8 9 11 12 9 10 12 12 11 12 13 13 14 14 14 14 14 13 13 14 13 13 14 14 12 12 13 14 14 14 14 15 14 13
-6 -5 -4 -6 -8 -6 -8 -4 -6 4 6 6 6 5 4 5 6 9 10 11 12 12 12 12 12 12 13 13 14 13 14 14 14 13 12 14 14 15 15 14 13 13 13 13 14 14 14 15 14
-5 -9 -8 -9 -8 -7 -6 -5 -4 6 7 7 7 6 4 3 3 3 7 11 11 11 14 13 13 13 12 12 13 13 13 13 14 14 14 12 13 14 15 15 14 14 14 15 15 15 14 15 15
-5 -6 -4 -5 -5 -2 -5 -3 -3 6 7 8 8 8 8 5 4 4 4 7 9 12 13 14 14 14 14 13 13 13 13 14 14 14 14 14 13 12 14 15 15 15 15 15 15 15 15 15 14
-4 -2 1 -0 1 2 -4 -3 -2 4 8 9 8 8 9 10 11 7 5 3 4 8 11 13 13 14 14 14 14 13 14 13 14 13 12 13 13 12 12 14 14 14 15 14 14 15 15 14 14
-4 -2 2 4 2 2 -3 -1 5 6 8 9 8 9 11 10 10 11 8 7 6 6 9 10 11 12 14 14 14 14 14 14 13 14 13 12 12 12 12 11 11 11 11 13 13 15 14 14 15
-3 -1 -3 -0 0 -0 -0 3 4 8 8 8 8 10 10 12 12 12 11 10 10 7 8 11 13 14 14 15 15 15 14 15 14 13 13 13 13 12 10 8 9 9 9 10 12 14 15 15 15
-3 -3 3 3 6 7 5 4 4 3 6 7 9 9 6 9 12 11 10 12 11 9 9 16 16 15 15 15 15 15 15 14 15 14 14 13 13 14 12 8 9 10 12 12 14 15 15 15 15
-0 2 2 2 4 7 7 5 2 5 8 9 9 9 6 8 9 10 10 11 11 10 10 16 17 17 16 16 16 16 16 15 16 16 15 14 13 14 14 11 9 11 14 15 16 16 16 16 16
-2 1 1 4 4 4 5 6 1 9 8 10 9 7 7 10 11 10 11 11 10 12 12 14 14 16 16 17 18 18 17 16 16 16 16 15 14 15 15 14 10 11 13 15 16 16 16 15 13
Wind_Speed
4 3 2 4 3 4 4 7 4 5 1 2 16 5 7 4 5 4 12 34 40 38 34 31 25 22 20 20 22 20 19 21 21 21 21 22 22 23 23 24 23 21 17 16 16 15 14 13 12
5 3 3 3 4 4 5 5 9 5 5 12 3 6 3 2 3 9 35 36 42 37 34 28 25 20 20 19 19 20 19 19 20 20 21 20 20 22 22 21 20 18 14 16 15 13 13 13 11
6 6 4 3 2 2 4 4 6 7 9 1 2 4 0 5 7 29 38 39 43 38 32 27 25 20 19 20 20 20 19 20 19 18 19 19 19 20 21 20 18 18 15 15 13 13 11 11 11
4 3 3 4 4 3 4 9 4 5 4 7 5 3 5 7 19 21 40 41 41 36 31 28 25 22 20 19 18 18 15 15 18 18 18 17 18 18 18 18 18 17 15 13 12 12 12 11 13
5 2 4 2 2 2 4 8 11 5 3 5 5 3 4 10 10 24 38 40 38 35 30 26 24 24 23 21 20 19 19 18 18 19 18 17 16 15 17 18 17 15 15 13 11 13 14 13 15
3 2 4 1 3 2 1 11 7 5 8 3 5 5 2 5 10 24 28 37 36 32 29 26 24 23 23 22 21 20 20 18 18 17 18 18 17 16 18 17 17 17 16 15 13 14 15 16 17
3 3 4 4 3 3 3 7 7 9 2 5 8 6 2 7 9 23 24 30 33 31 29 27 25 23 22 22 21 21 22 21 19 19 17 17 17 16 16 17 15 16 16 16 15 15 16 19 17
2 3 2 2 1 2 4 4 9 16 3 5 3 4 4 14 15 22 24 27 29 32 30 29 26 25 24 23 22 21 21 20 20 20 18 18 18 16 16 15 16 15 16 16 16 17 18 20 18
2 3 3 4 4 3 3 2 4 7 5 3 4 6 9 8 19 25 25 28 32 33 31 29 28 27 24 23 23 22 22 21 21 21 20 19 18 17 16 14 15 15 14 16 16 18 20 22 19
2 3 6 4 4 5 5 6 4 2 10 6 10 7 17 13 26 28 28 30 35 35 33 30 29 27 25 23 22 22 22 23 21 21 20 19 18 17 16 15 14 15 15 14 16 18 20 22 21
3 4 4 10 18 14 8 11 19 13 10 23 14 17 10 20 31 30 29 29 35 33 34 33 31 30 28 26 23 22 23 23 22 20 20 18 18 18 17 16 14 15 16 15 18 18 19 22 22
2 12 11 11 8 8 4 4 4 21 26 27 19 16 21 21 32 33 33 32 35 36 34 33 33 31 30 28 26 24 23 22 23 22 20 20 19 18 18 17 16 15 16 15 17 18 20 22 23
4 6 9 10 12 12 14 16 8 12 28 26 24 18 23 28 26 35 33 35 36 36 37 35 34 34 32 30 29 26 25 23 22 21 20 20 19 20 18 18 17 14 14 15 15 16 18 20 22
3 12 13 9 12 11 8 7 1 16 16 13 14 21 31 36 34 33 40 40 40 37 38 36 35 34 34 31 30 29 27 24 24 23 22 21 20 19 19 18 17 16 14 13 14 15 18 18 19
5 7 10 14 2 3 3 7 6 16 16 13 9 22 33 39 38 36 42 44 38 37 36 37 35 33 34 34 32 29 27 25 25 25 23 23 21 20 19 18 17 14 12 12 13 15 18 21 21
5 5 5 5 6 5 3 8 13 11 19 10 12 23 33 38 42 35 33 39 38 37 38 37 36 34 33 34 34 32 31 28 26 26 25 24 23 22 20 20 18 15 13 12 12 14 18 20 22
6 2 3 9 2 2 3 9 8 22 7 13 12 27 34 37 41 37 32 26 36 37 38 38 39 36 33 32 33 34 33 32 30 29 27 27 25 25 23 22 21 18 16 16 14 13 15 17 21
3 4 4 6 2 7 5 7 9 13 9 14 10 27 32 34 41 33 30 27 26 35 36 39 39 39 34 33 33 34 34 34 32 32 31 28 28 26 27 25 23 23 22 20 18 17 15 17 20
1 3 5 8 5 5 7 8 11 17 19 20 14 12 24 35 28 25 28 28 27 31 37 40 42 40 38 37 36 35 36 35 35 32 31 32 29 27 28 26 26 24 24 22 20 20 19 18 19
4 3 6 9 7 6 8 10 6 10 8 11 23 16 8 16 18 21 22 27 33 39 39 40 44 43 42 39 36 34 33 33 33 31 31 31 28 29 27 28 29 27 26 26 23 23 23 22 20
4 5 5 7 6 4 6 8 7 7 16 21 21 16 19 11 10 17 24 34 37 43 48 45 42 45 43 42 39 38 36 36 34 34 33 34 30 27 30 26 27 30 28 27 25 24 24 23 20
1 9 2 3 4 1 3 3 3 4 9 10 23 21 20 15 7 2 9 29 37 43 45 46 45 44 46 44 46 43 42 40 38 34 33 34 33 29 29 29 28 26 28 28 27 25 25 25 25
5 0 5 3 3 2 2 4 7 2 4 6 14 17 15 15 15 15 15 7 8 29 37 43 45 45 48 46 48 46 46 42 39 37 35 35 33 33 29 28 29 28 29 28 28 27 28 28 28
1 3 6 4 3 2 3 5 6 3 3 3 4 7 9 11 12 12 14 14 7 11 22 32 40 46 46 49 49 49 47 46 45 41 37 36 36 36 35 33 32 29 29 29 29 30 31 30 28
7 7 4 4 4 5 0 1 8 2 4 4 6 8 9 12 14 15 16 17 17 13 14 24 36 43 45 47 49 50 50 46 47 43 37 35 35 37 38 37 36 34 32 30 31 31 28 29 31
4 5 5 4 3 5 3 5 4 3 3 6 8 10 10 9 12 13 15 18 25 27 21 20 19 31 43 45 46 46 51 49 47 45 40 35 35 33 33 37 37 35 33 32 31 29 27 29 28
2 4 3 4 2 1 3 6 4 2 4 7 10 10 13 12 11 14 16 21 25 25 23 20 16 23 34 41 42 43 47 53 48 49 43 38 35 32 29 29 32 33 31 31 31 30 26 27 23
5 2 3 4 1 3 5 5 4 2 8 7 10 11 15 16 15 16 18 20 22 23 19 16 13 16 25 31 33 37 39 48 51 48 45 39 37 33 30 27 27 27 27 25 24 26 23 26 25
4 3 6 4 3 2 2 6 6 6 4 7 10 12 17 18 17 15 16 21 23 21 15 8 9 12 17 22 27 31 34 44 50 51 47 41 37 35 32 28 27 28 28 24 24 23 24 24 25
2 3 4 5 5 2 3 6 3 6 7 9 15 17 18 18 18 13 16 22 21 18 14 11 11 11 12 20 27 32 36 38 45 44 41 39 37 34 31 30 30 30 29 27 23 23 22 22 21
Wind_Direction
207 209 85 64 53 55 343 353 286 11 356 183 147 164 189 152 162 211 157 164 159 159 158 151 153 152 148 143 140 139 141 140 140 139 141 142 145 144 149 153 151 150 146 153 152 153 158 158 162
165 94 76 75 66 26 313 334 352 356 53 115 101 138 169 130 167 141 151 161 163 161 160 159 159 161 156 155 146 143 147 148 145 144 145 148 150 154 155 155 158 159 151 151 151 153 158 159 163
98 16 9 55 72 63 301 295 309 63 107 7 11 314 203 145 152 149 157 162 163 166 168 169 170 173 169 164 159 153 153 150 148 150 151 153 156 164 168 168 168 169 160 157 160 157 157 161 157
102 34 46 67 332 99 314 297 332 152 320 64 77 23 12 352 142 154 162 165 169 172 171 174 179 183 182 173 165 162 161 159 159 158 158 160 163 168 174 175 175 175 170 165 164 173 168 165 159
113 61 55 336 319 318 302 305 19 325 350 63 43 28 31 127 147 157 170 169 174 177 179 184 187 187 185 184 179 176 175 171 178 171 170 166 167 171 175 177 177 178 177 172 170 173 170 162 156
85 91 66 23 330 197 342 254 317 265 90 96 81 99 164 208 179 166 172 182 184 188 190 192 192 188 187 188 186 185 184 182 181 180 181 178 170 172 171 172 173 178 173 171 167 163 168 161 153
150 95 181 199 223 150 222 243 279 287 236 169 147 136 195 188 194 178 175 179 185 188 189 193 194 191 191 192 193 189 188 187 182 181 182 178 176 173 173 170 172 175 175 173 171 175 169 165 161
182 90 87 281 235 270 264 196 229 263 314 132 193 206 191 183 183 186 184 185 186 186 188 192 194 195 192 191 194 195 194 190 187 185 184 180 181 179 181 177 180 173 174 174 178 183 175 172 170
138 67 171 225 189 251 249 230 230 279 281 233 172 106 329 194 182 191 191 188 189 189 191 194 196 196 195 191 192 192 193 192 193 193 192 190 189 187 182 184 182 179 184 186 186 182 183 181 180
86 109 224 210 206 234 235 227 257 295 265 199 205 226 277 238 196 196 198 195 191 192 194 197 199 199 196 196 193 191 189 195 195 194 193 194 194 193 192 189 187 189 180 181 174 184 187 189 187
186 209 226 264 264 261 250 245 254 268 271 267 217 236 209 219 197 195 206 208 196 196 198 199 202 202 199 198 197 196 200 197 190 195 197 194 194 193 195 192 190 187 183 184 183 188 193 192 192
197 247 237 278 314 316 257 254 230 228 254 279 269 230 222 199 200 200 207 206 203 203 204 203 203 205 202 202 202 200 200 199 198 199 200 200 200 198 198 196 198 189 193 191 191 196 200 199 199
215 268 279 247 278 270 278 269 244 264 290 295 271 225 206 187 212 213 207 207 206 207 206 208 208 205 205 206 204 205 204 204 203 200 200 202 202 203 201 200 201 197 196 198 198 200 202 203 204
261 293 289 285 259 237 205 265 184 275 327 296 276 213 206 204 214 214 210 206 209 210 210 211 211 211 209 210 210 209 207 207 206 206 205 204 205 204 205 204 198 199 201 202 203 201 203 204 207
295 319 330 309 10 288 198 310 236 309 335 293 266 219 209 216 211 223 214 214 205 209 211 214 216 216 216 215 214 214 214 213 212 210 209 208 208 206 206 203 203 201 204 208 211 208 210 213 215
20 51 347 294 345 340 97 271 286 343 333 297 210 208 213 219 214 217 218 225 219 215 215 216 218 221 221 222 219 218 216 217 216 215 213 211 211 211 209 209 208 207 209 206 213 220 223 222 222
11 263 276 318 195 32 62 291 278 336 346 322 221 212 214 223 220 218 223 232 230 226 223 222 220 222 222 222 223 222 222 221 218 217 215 214 212 211 213 214 211 210 213 214 217 223 229 232 232
248 303 281 249 274 349 330 268 297 330 327 314 291 212 215 220 230 221 226 249 244 234 233 230 226 225 224 223 222 223 225 225 223 223 221 218 216 215 215 216 214 215 217 221 225 229 236 244 241
192 207 258 268 255 5 287 290 306 330 6 15 16 233 220 228 237 228 223 249 263 251 238 235 228 226 224 223 220 219 224 225 224 223 223 221 218 217 218 220 220 221 225 229 231 237 242 248 243
225 253 266 285 303 149 312 298 20 6 358 24 49 42 257 238 236 235 227 238 262 255 243 237 233 230 226 225 226 224 221 228 228 228 218 214 216 222 224 226 227 231 236 238 237 237 241 247 247
199 184 228 216 3 356 332 326 58 327 17 18 35 40 48 52 224 231 234 241 260 248 244 240 237 232 232 228 227 229 228 229 228 227 224 218 221 226 226 230 233 235 236 239 246 245 242 249 251
196 212 232 303 37 264 53 269 9 335 7 2 358 2 0 5 17 62 236 241 244 250 249 247 239 238 235 231 229 229 231 231 230 229 231 230 231 229 230 234 236 237 236 239 247 252 249 252 250
228 81 169 152 190 87 328 84 274 88 19 347 342 348 350 349 338 328 335 308 303 243 240 248 247 239 236 235 232 230 233 234 238 237 237 236 236 234 234 237 238 242 241 245 249 252 255 253 250
330 118 46 59 89 45 229 133 279 247 185 277 275 315 342 351 342 327 315 320 297 270 246 239 245 246 240 236 235 234 232 234 233 236 239 239 238 237 239 239 240 243 244 244 249 254 257 262 261
56 50 357 357 8 220 251 66 239 215 203 216 250 296 321 338 342 329 322 309 310 304 268 238 248 247 244 240 234 235 238 234 239 235 239 241 240 242 244 243 243 243 247 251 254 259 263 261 262
43 118 152 238 215 253 94 233 259 210 186 261 288 308 316 318 323 332 330 314 313 309 305 285 266 244 243 242 237 235 237 235 238 241 241 243 246 249 254 252 251 251 251 254 259 263 263 262 274
346 39 184 122 18 61 262 289 325 164 289 307 312 317 333 339 335 327 324 320 316 319 310 299 289 253 246 242 240 238 237 239 236 239 243 245 249 250 254 254 254 253 253 251 256 263 268 261 269
97 163 38 12 324 292 309 296 240 249 265 281 298 312 331 330 333 337 338 334 327 318 305 301 289 257 252 249 249 246 240 243 241 241 239 242 249 249 251 249 250 247 246 244 249 257 266 266 271
9 21 60 113 125 161 295 277 215 266 280 265 280 303 322 323 330 341 348 345 341 331 307 293 280 232 238 242 250 249 244 241 244 239 241 241 243 245 247 245 245 243 243 242 249 256 262 258 262
215 124 118 117 273 223 175 262 270 243 267 284 294 299 308 316 320 316 323 330 335 337 322 283 269 255 232 211 222 234 249 247 247 245 242 241 245 243 245 247 243 240 242 245 249 257 262 262 258
Height
1498 1497 1495 1497 1505 1507 1509 1502 1488 1489 1486 1485 1486 1489 1489 1488 1492 1506 1490 1498 1504 1507 1511 1514 1518 1521 1524 1527 1528 1531 1534 1536 1538 1540 1543 1545 1547 1549 1552 1555 1557 1560 1561 1562 1564 1566 1567 1567 1569
1498 1497 1495 1496 1511 1523 1516 1497 1494 1489 1488 1489 1491 1490 1489 1490 1489 1489 1494 1499 1506 1509 1512 1516 1519 1522 1525 1528 1530 1533 1536 1538 1539 1541 1544 1546 1549 1552 1554 1556 1559 1561 1563 1564 1566 1567 1568 1569 1570
1499 1498 1499 1501 1510 1520 1518 1495 1493 1489 1488 1490 1491 1492 1490 1489 1489 1491 1494 1500 1506 1511 1514 1517 1520 1524 1526 1529 1532 1535 1537 1538 1540 1543 1546 1549 1550 1553 1556 1558 1560 1562 1564 1565 1567 1568 1569 1570 1571
1500 1502 1504 1512 1511 1504 1502 1491 1490 1487 1486 1487 1490 1494 1495 1494 1492 1494 1497 1502 1507 1512 1516 1520 1522 1525 1527 1529 1532 1535 1537 1539 1542 1545 1547 1550 1552 1554 1557 1559 1561 1564 1565 1567 1568 1569 1570 1571 1572
1503 1504 1513 1513 1508 1501 1494 1490 1489 1484 1488 1488 1489 1495 1497 1497 1497 1498 1500 1503 1507 1512 1517 1521 1523 1526 1528 1531 1533 1535 1538 1540 1544 1546 1548 1551 1552 1555 1557 1559 1561 1564 1565 1567 1568 1569 1571 1572 1574
1504 1505 1520 1521 1508 1498 1495 1492 1489 1479 1486 1489 1490 1494 1498 1499 1500 1501 1503 1504 1507 1511 1516 1520 1524 1527 1529 1532 1533 1536 1538 1541 1544 1546 1549 1551 1553 1556 1557 1559 1561 1564 1565 1568 1569 1570 1571 1573 1575
1503 1508 1516 1511 1505 1500 1497 1495 1490 1482 1484 1485 1489 1492 1496 1497 1500 1503 1504 1506 1509 1512 1515 1520 1523 1526 1529 1531 1533 1536 1539 1541 1543 1546 1549 1551 1553 1556 1558 1560 1562 1563 1565 1567 1569 1571 1572 1573 1575
1503 1505 1514 1512 1510 1506 1493 1492 1488 1487 1487 1489 1488 1489 1492 1494 1499 1503 1505 1506 1509 1511 1515 1518 1522 1525 1528 1531 1534 1536 1538 1541 1544 1547 1549 1551 1553 1556 1558 1560 1562 1564 1565 1568 1569 1571 1573 1575 1576
1504 1511 1518 1508 1505 1498 1494 1493 1489 1487 1489 1491 1492 1494 1494 1495 1495 1501 1503 1505 1508 1510 1513 1517 1520 1524 1527 1530 1533 1536 1539 1542 1544 1547 1549 1552 1553 1555 1558 1560 1562 1563 1566 1568 1569 1571 1573 1575 1577
1504 1514 1506 1496 1495 1495 1492 1492 1488 1487 1486 1489 1490 1487 1488 1492 1493 1497 1500 1502 1505 1507 1510 1514 1518 1521 1525 1528 1532 1535 1538 1541 1544 1546 1549 1551 1554 1555 1558 1560 1562 1564 1566 1568 1570 1572 1573 1575 1578
1502 1507 1496 1493 1491 1492 1492 1490 1489 1486 1483 1480 1484 1484 1483 1481 1491 1492 1501 1503 1503 1506 1509 1512 1516 1520 1524 1526 1529 1533 1536 1539 1543 1546 1548 1551 1554 1555 1557 1560 1562 1564 1566 1568 1570 1572 1573 1576 1578
1503 1495 1494 1490 1488 1487 1487 1484 1483 1482 1477 1475 1477 1480 1480 1484 1490 1489 1493 1498 1503 1505 1507 1510 1514 1519 1522 1526 1529 1532 1535 1538 1541 1544 1548 1551 1553 1555 1557 1560 1562 1564 1565 1567 1569 1572 1574 1575 1578
1498 1492 1490 1488 1488 1487 1485 1481 1481 1478 1470 1468 1471 1476 1479 1481 1474 1475 1483 1491 1497 1501 1505 1508 1512 1515 1520 1523 1527 1531 1534 1537 1540 1543 1546 1549 1552 1554 1557 1559 1561 1563 1565 1567 1569 1571 1573 1575 1578
1494 1490 1485 1483 1483 1482 1482 1478 1478 1468 1468 1464 1464 1469 1469 1472 1471 1476 1480 1481 1487 1496 1501 1506 1510 1514 1518 1521 1525 1529 1532 1535 1539 1542 1545 1548 1551 1554 1556 1559 1560 1563 1565 1567 1569 1570 1573 1575 1577
1493 1493 1485 1478 1480 1480 1480 1480 1476 1468 1465 1463 1464 1463 1464 1463 1471 1467 1472 1477 1476 1485 1497 1502 1508 1512 1516 1520 1524 1527 1530 1534 1537 1540 1543 1546 1549 1553 1555 1558 1560 1563 1565 1566 1568 1569 1571 1573 1575
1497 1499 1507 1483 1481 1478 1481 1492 1466 1465 1463 1462 1463 1461 1461 1462 1466 1470 1474 1478 1484 1489 1492 1498 1503 1507 1512 1517 1521 1525 1528 1531 1535 1538 1541 1544 1547 1551 1553 1556 1559 1562 1563 1565 1567 1568 1569 1571 1573
1508 1514 1506 1495 1481 1482 1482 1484 1465 1463 1461 1458 1459 1460 1459 1462 1465 1470 1473 1479 1484 1490 1494 1497 1501 1503 1507 1512 1516 1521 1525 1528 1531 1535 1538 1541 1544 1547 1550 1553 1557 1559 1561 1563 1565 1566 1568 1569 1571
1511 1510 1504 1504 1485 1482 1482 1480 1466 1465 1463 1459 1457 1456 1458 1460 1458 1469 1473 1477 1482 1486 1491 1496 1500 1502 1506 1509 1512 1516 1520 1524 1527 1530 1533 1537 1540 1543 1546 1549 1552 1555 1557 1559 1562 1563 1565 1566 1568
1500 1505 1506 1492 1482 1486 1483 1481 1472 1466 1462 1461 1459 1459 1460 1457 1467 1471 1474 1469 1477 1483 1486 1490 1493 1498 1502 1504 1507 1510 1513 1518 1522 1525 1530 1533 1536 1539 1543 1545 1548 1551 1552 1555 1559 1560 1562 1563 1565
1501 1505 1506 1491 1483 1488 1485 1481 1480 1472 1470 1468 1464 1461 1461 1464 1467 1470 1474 1475 1466 1475 1481 1483 1487 1492 1496 1501 1506 1508 1511 1515 1519 1524 1526 1529 1533 1536 1538 1541 1544 1547 1549 1551 1554 1556 1558 1559 1561
1501 1504 1499 1495 1488 1486 1488 1486 1490 1478 1471 1467 1465 1466 1466 1466 1467 1469 1471 1472 1470 1468 1470 1474 1481 1487 1490 1496 1500 1504 1508 1511 1515 1519 1524 1526 1529 1532 1534 1536 1539 1542 1545 1547 1549 1552 1552 1554 1556
1495 1486 1487 1489 1496 1509 1493 1518 1488 1487 1480 1473 1468 1464 1463 1465 1469 1469 1469 1468 1466 1463 1466 1468 1473 1479 1482 1488 1493 1496 1499 1503 1507 1512 1519 1523 1527 1529 1531 1532 1535 1538 1539 1541 1544 1546 1548 1550 1551
1489 1482 1483 1485 1499 1500 1499 1514 1494 1489 1487 1484 1476 1471 1468 1466 1464 1462 1463 1465 1463 1462 1463 1463 1465 1469 1473 1478 1483 1489 1492 1496 1501 1508 1513 1519 1522 1524 1526 1528 1530 1532 1535 1537 1539 1540 1542 1543 1545
1480 1485 1495 1502 1508 1522 1502 1510 1505 1492 1485 1484 1480 1477 1472 1468 1466 1464 1462 1460 1459 1458 1459 1459 1459 1460 1465 1469 1473 1478 1484 1489 1493 1497 1504 1510 1515 1518 1520 1522 1524 1527 1529 1531 1533 1535 1537 1538 1540
1487 1501 1529 1522 1529 1526 1503 1510 1495 1482 1481 1481 1479 1476 1473 1470 1467 1464 1462 1457 1455 1454 1454 1454 1450 1448 1453 1458 1465 1469 1469 1480 1481 1488 1493 1499 1505 1508 1511 1514 1517 1519 1523 1526 1527 1528 1532 1530 1532
1495 1501 1529 1532 1538 1523 1510 1514 1492 1479 1479 1478 1477 1476 1474 1472 1469 1465 1462 1458 1453 1452 1448 1445 1440 1442 1445 1450 1456 1463 1465 1468 1474 1476 1482 1488 1493 1497 1503 1507 1510 1513 1515 1519 1523 1523 1524 1523 1521
1494 1510 1502 1520 1526 1529 1517 1497 1481 1480 1479 1477 1476 1475 1472 1471 1468 1465 1462 1459 1454 1448 1446 1441 1437 1439 1441 1445 1450 1456 1461 1461 1465 1467 1472 1479 1484 1490 1494 1498 1503 1506 1509 1511 1515 1518 1520 1519 1519
1492 1495 1513 1524 1527 1525 1520 1512 1501 1485 1482 1477 1474 1471 1470 1469 1467 1464 1460 1457 1453 1447 1443 1440 1437 1438 1442 1444 1447 1450 1455 1454 1457 1462 1464 1469 1477 1484 1488 1492 1496 1500 1503 1505 1508 1510 1513 1514 1515
1502 1506 1513 1522 1529 1535 1537 1517 1486 1482 1478 1477 1473 1469 1467 1464 1463 1461 1459 1455 1451 1445 1441 1439 1439 1439 1441 1443 1445 1446 1448 1447 1450 1453 1459 1462 1467 1476 1481 1486 1490 1494 1498 1501 1502 1504 1505 1507 1509
1496 1500 1510 1527 1525 1528 1530 1519 1477 1477 1475 1472 1469 1466 1465 1463 1461 1460 1459 1455 1450 1444 1440 1439 1439 1440 1439 1440 1442 1443 1443 1445 1443 1447 1453 1453 1461 1467 1475 1481 1483 1486 1491 1495 1497 1498 1499 1500 1502